FW3157 Weather Reports


time (UTC)temp
F
wind
direction
speed
knots
gust
knots
rain 1hr
in
rain 24hr
in
rain mn
in
humidity
%
barometer
mb
20260508135750 63 275 1.7 3.5 0.00 0.17 0.17 84 1015.4
20260508135513 63 276 0.9 2.6 0.00 0.17 0.17 84 1015.4
20260508134747 63 266 1.7 4.3 0.00 0.17 0.17 84 1015.4
20260508134244 63 309 2.6 4.3 0.00 0.17 0.17 83 1015.4
20260508134012 63 323 1.7 4.3 0.00 0.17 0.17 83 1015.6
20260508133245 63 306 1.7 4.3 0.00 0.17 0.17 84 1015.6
20260508132743 63 305 2.6 6.1 0.00 0.17 0.17 85 1015.7
20260508132242 63 280 2.6 6.1 0.00 0.17 0.17 85 1015.6
20260508131743 63 300 2.6 5.2 0.00 0.17 0.17 87 1015.8
20260508131241 63 278 2.6 5.2 0.00 0.17 0.17 87 1015.8
20260508130738 63 292 1.7 5.2 0.00 0.17 0.17 88 1015.8
20260508130237 62 307 2.6 5.2 0.00 0.17 0.17 88 1015.9
20260508125735 62 256 2.6 5.2 0.00 0.17 0.17 88 1016.0
20260508125228 62 289 1.7 3.5 0.00 0.17 0.17 89 1016.0
20260508124722 62 282 0.9 3.5 0.00 0.17 0.17 89 1016.1
20260508124216 62 271 0.9 2.6 0.00 0.17 0.17 90 1016.2
20260508123935 62 257 0.9 2.6 0.01 0.17 0.17 90 1016.2
20260508123204 62 246 0.9 2.6 0.02 0.17 0.17 90 1016.2
20260508122923 62 259 0.9 2.6 0.03 0.17 0.17 90 1016.2
20260508122152 62 259 0.9 2.6 0.04 0.17 0.17 91 1016.3
20260508121647 62 252 1.7 2.6 0.05 0.17 0.17 91 1016.4
20260508121145 62 259 0.9 2.6 0.05 0.17 0.17 90 1016.3
20260508120630 62 278 0.9 2.6 0.06 0.17 0.17 90 1016.5
20260508120607 62 295 0.9 2.6 0.07 0.17 0.17 90 1016.5
20260508115618 63 301 0.9 2.6 0.08 0.17 0.17 90 1016.6
20260508115112 63 289 0.9 2.6 0.09 0.17 0.17 89 1016.7
20260508114607 63 217 0.0 1.7 0.10 0.17 0.17 89 1016.9
20260508114320 63 217 0.0 0.9 0.10 0.16 0.17 89 1017.0
20260508113554 63 217 0.0 0.9 0.11 0.16 0.16 88 1017.2
20260508113048 63 217 0.0 0.9 0.10 0.15 0.15 87 1017.3
20260508112542 63 217 0.0 0.9 0.09 0.13 0.13 87 1017.3
20260508112035 63 217 0.0 0.9 0.09 0.13 0.13 87 1017.4
20260508111757 63 217 0.0 0.9 0.08 0.12 0.12 87 1017.4
20260508111024 63 217 0.0 0.9 0.08 0.11 0.12 87 1017.4
20260508110518 64 217 0.0 0.0 0.07 0.10 0.11 89 1017.5
20260508110012 64 217 0.0 0.9 0.07 0.09 0.09 89 1017.6
20260508105506 64 217 0.0 0.9 0.06 0.08 0.09 89 1017.6
20260508105223 64 217 0.0 1.7 0.06 0.07 0.07 89 1017.7
20260508104454 64 217 0.0 1.7 0.05 0.07 0.06 89 1017.8
20260508103947 64 217 0.0 1.7 0.05 0.06 0.06 90 1017.9
20260508103442 64 217 0.0 1.7 0.04 0.06 0.05 90 1017.9
20260508102937 63 217 0.9 2.6 0.05 0.06 0.05 89 1018.0
20260508102430 63 217 0.9 2.6 0.05 0.06 0.05 89 1018.1
20260508102148 63 217 0.9 1.7 0.04 0.05 0.04 88 1018.2
20260508101418 64 217 0.0 1.7 0.03 0.04 0.03 88 1018.1
20260508100911 63 217 0.0 0.9 0.03 0.04 0.03 88 1018.1
20260508100406 64 217 0.0 2.6 0.03 0.04 0.03 87 1018.3
20260508095900 64 217 0.9 2.6 0.02 0.03 0.02 88 1018.5
20260508095357 64 143 0.9 2.6 0.02 0.03 0.02 87 1018.7
20260508094847 65 224 0.0 1.7 0.02 0.02 0.02 87 1018.7
20260508094342 65 224 0.9 3.5 0.02 0.02 0.02 88 1018.7
20260508093836 65 222 0.9 3.5 0.01 0.02 0.01 87 1018.7
20260508093330 64 221 0.9 2.6 0.00 0.01 0.01 87 1018.8
20260508092824 64 206 0.9 2.6 0.00 0.01 0.00 86 1018.7
20260508092317 64 259 0.9 3.5 0.00 0.01 0.00 86 1018.6
20260508091812 64 214 1.7 4.3 0.00 0.01 0.00 85 1018.6
20260508091306 64 203 2.6 5.2 0.00 0.01 0.00 85 1018.5
20260508090800 65 211 1.7 5.2 0.00 0.01 0.00 84 1018.5
20260508090257 65 253 1.7 4.3 0.00 0.01 0.00 83 1018.4
20260508090035 65 221 0.9 4.3 0.00 0.01 0.00 82 1018.3
20260508085254 65 224 0.9 1.7 0.00 0.01 0.00 81 1018.1
20260508084754 65 224 0.0 1.7 0.00 0.01 0.00 81 1018.0
20260508084254 65 209 0.9 2.6 0.00 0.01 0.00 81 1018.0
20260508084017 65 209 1.7 6.1 0.00 0.01 0.00 81 1018.0
20260508083513 65 165 1.7 6.1 0.00 0.01 0.00 80 1018.0
20260508082754 66 272 0.9 4.3 0.00 0.01 0.00 78 1017.9
20260508082255 66 244 0.0 4.3 0.00 0.01 0.00 76 1017.8
20260508081753 66 258 0.9 4.3 0.00 0.01 0.00 76 1017.7
20260508081516 66 258 1.7 5.2 0.00 0.01 0.00 76 1017.6
20260508080749 66 255 0.9 5.2 0.00 0.01 0.00 75 1017.5
20260508080247 67 105 0.9 2.6 0.00 0.01 0.00 71 1017.4
20260508075746 67 105 0.9 2.6 0.00 0.01 0.00 72 1017.2
20260508075503 66 105 0.9 4.3 0.00 0.01 0.00 73 1017.1
20260508074739 66 106 1.7 4.3 0.00 0.01 0.00 74 1017.1
20260508074240 66 68 1.7 5.2 0.00 0.01 0.00 75 1017.1
20260508073741 66 93 1.7 5.2 0.00 0.01 0.00 75 1017.2
20260508073240 65 101 1.7 5.2 0.00 0.01 0.00 76 1017.2
20260508072738 65 117 2.6 5.2 0.00 0.01 0.00 76 1017.2
20260508072236 65 90 1.7 3.5 0.00 0.01 0.00 76 1017.3
20260508071737 65 79 0.9 1.7 0.00 0.01 0.00 76 1017.5
20260508071715 65 134 0.0 1.7 0.00 0.01 0.00 77 1017.7
20260508070735 65 134 0.9 2.6 0.00 0.01 0.00 77 1017.9
20260508070454 65 143 0.9 2.6 0.00 0.01 0.00 78 1017.9
20260508065733 65 141 0.0 2.6 0.00 0.01 0.00 78 1018.0
20260508065458 64 94 0.0 2.6 0.00 0.01 0.00 79 1017.8
20260508064727 64 94 0.0 2.6 0.00 0.01 0.00 79 1017.8
20260508064228 64 124 0.9 2.6 0.00 0.01 0.00 80 1017.7
20260508063731 64 138 0.9 3.5 0.00 0.01 0.00 79 1017.7
20260508063230 64 216 0.9 3.5 0.00 0.01 0.00 79 1017.7
20260508062730 64 158 0.9 2.6 0.00 0.01 0.00 79 1017.6
20260508062226 64 163 0.9 2.6 0.00 0.01 0.00 79 1017.5
20260508061727 63 153 0.0 1.7 0.00 0.01 0.00 78 1017.5
20260508061226 63 212 0.0 1.7 0.00 0.01 0.00 79 1017.3
20260508060952 63 212 0.9 2.6 0.00 0.01 0.00 80 1017.2
20260508060225 63 212 0.9 2.6 0.00 0.01 0.00 81 1017.2
20260508055725 63 217 0.0 1.7 0.00 0.01 0.00 81 1017.2
20260508055714 63 101 0.0 0.9 0.00 0.01 0.00 82 1017.0
20260508054725 63 101 0.0 1.7 0.00 0.01 0.00 82 1016.7
20260508054225 62 101 0.0 1.7 0.00 0.01 0.00 82 1016.6
20260508053725 62 101 0.0 0.9 0.00 0.01 0.00 82 1016.6
20260508053225 62 101 0.9 1.7 0.00 0.01 0.00 83 1016.6
20260508052726 62 101 0.9 1.7 0.00 0.01 0.00 83 1016.6
20260508052226 62 101 1.7 1.7 0.00 0.01 0.00 83 1016.6
20260508051945 62 101 0.9 2.6 0.00 0.01 0.00 83 1016.6
20260508051226 62 101 1.7 2.6 0.00 0.01 0.00 83 1016.7
20260508050725 62 101 1.7 2.6 0.00 0.01 0.00 83 1016.7
20260508050226 62 101 0.9 2.6 0.00 0.01 0.00 83 1016.6
20260508045726 62 195 0.0 0.9 0.00 0.01 0.00 84 1016.6
20260508045225 62 195 0.0 1.7 0.00 0.01 0.00 84 1016.6
20260508044724 62 195 0.0 2.6 0.00 0.01 0.00 84 1016.5
20260508044225 62 146 0.9 2.6 0.00 0.01 0.00 84 1016.5
20260508043717 62 228 0.9 2.6 0.00 0.01 0.00 84 1016.5
20260508043211 62 216 0.0 1.7 0.00 0.01 0.00 84 1016.5
20260508042706 62 90 0.0 0.0 0.00 0.01 0.00 84 1016.3
20260508042159 62 90 0.0 0.0 0.00 0.01 0.00 84 1016.2
20260508041657 61 90 0.0 0.0 0.00 0.01 0.00 84 1016.2
20260508041157 61 90 0.0 0.0 0.00 0.01 0.00 85 1016.1
20260508040656 61 90 0.0 0.9 0.00 0.01 0.00 85 1016.2
20260508040155 61 90 0.0 1.7 0.00 0.01 0.00 84 1016.2
20260508035656 61 90 0.9 2.6 0.00 0.01 0.00 84 1016.2
20260508035154 61 90 0.9 2.6 0.00 0.01 0.00 84 1016.2
20260508034651 61 90 0.0 1.7 0.00 0.01 0.00 84 1016.3
20260508034151 61 90 0.0 1.7 0.00 0.01 0.00 84 1016.4
20260508033651 61 90 0.0 1.7 0.00 0.01 0.00 84 1016.4
20260508033150 61 90 0.0 0.9 0.00 0.01 0.00 84 1016.5
20260508032647 60 90 0.0 0.9 0.00 0.01 0.00 84 1016.5
20260508032148 60 90 0.0 0.9 0.00 0.01 0.00 84 1016.6
20260508031647 60 90 0.0 0.9 0.00 0.01 0.00 84 1016.5
20260508031145 60 90 0.0 0.9 0.00 0.01 0.00 84 1016.4
20260508030902 60 90 0.0 0.9 0.00 0.01 0.00 84 1016.3
20260508030144 60 90 0.0 0.9 0.00 0.01 0.00 84 1016.3
20260508025644 60 90 0.0 0.9 0.00 0.01 0.00 84 1016.3
20260508025143 60 90 0.0 0.9 0.00 0.01 0.00 84 1016.3
20260508024642 60 90 0.0 0.0 0.00 0.01 0.00 83 1016.3
20260508024137 61 90 0.0 0.0 0.00 0.01 0.00 83 1016.3
20260508023631 61 90 0.0 0.0 0.00 0.01 0.00 83 1016.3
20260508023125 61 90 0.0 0.0 0.00 0.01 0.00 83 1016.2
20260508022619 61 90 0.0 0.0 0.00 0.01 0.00 83 1016.1
20260508022113 61 90 0.0 0.0 0.00 0.01 0.00 83 1016.2
20260508021607 61 90 0.0 0.0 0.00 0.01 0.00 83 1016.1
20260508021541 62 90 0.0 0.0 0.00 0.01 0.00 84 1015.9
20260508020555 62 90 0.0 0.0 0.00 0.01 0.00 84 1016.0
20260508020049 62 90 0.0 0.0 0.00 0.01 0.00 83 1016.1
20260508015809 62 90 0.0 0.9 0.00 0.01 0.00 82 1016.0
20260508015309 62 90 0.0 1.7 0.00 0.01 0.00 82 1016.0
20260508014546 62 90 0.0 1.7 0.00 0.01 0.00 82 1016.1
20260508014043 62 90 0.0 0.0 0.00 0.01 0.00 82 1016.1
20260508013543 62 90 0.0 0.0 0.00 0.01 0.00 81 1016.1
20260508013043 62 90 0.0 0.0 0.00 0.01 0.00 81 1016.2
20260508012543 62 90 0.0 0.0 0.00 0.01 0.00 81 1016.3
20260508012039 62 90 0.0 0.0 0.00 0.01 0.00 81 1016.2
20260508011539 62 90 0.0 0.0 0.00 0.01 0.00 81 1016.3
20260508011039 62 90 0.0 0.0 0.00 0.01 0.00 80 1016.4
20260508010537 62 90 0.0 0.0 0.00 0.01 0.00 80 1016.5
20260508010035 62 90 0.0 0.0 0.00 0.01 0.00 81 1016.6
20260508005533 62 90 0.0 0.0 0.00 0.01 0.00 81 1016.5
20260508005033 62 90 0.0 0.0 0.00 0.01 0.00 81 1016.6
20260508004533 62 90 0.0 0.0 0.00 0.01 0.00 81 1016.6
20260508004253 62 90 0.0 0.0 0.00 0.01 0.00 81 1016.7
20260508003528 62 90 0.0 0.0 0.00 0.01 0.00 81 1016.9
20260508003029 62 90 0.0 0.9 0.00 0.01 0.00 81 1016.9
20260508002753 62 90 0.0 0.9 0.00 0.01 0.00 82 1016.7
20260508002022 62 90 0.0 0.0 0.00 0.01 0.00 82 1016.7
20260508001517 62 90 0.0 0.0 0.00 0.01 0.00 82 1016.9
20260508001011 62 90 0.0 0.0 0.00 0.01 0.00 82 1016.9
20260508000504 62 90 0.0 0.0 0.00 0.01 0.00 82 1017.0
20260507235958 62 90 0.0 0.0 0.00 0.01 0.00 82 1017.0
20260507235454 62 90 0.0 0.0 0.00 0.01 0.00 81 1017.0
20260507234946 62 90 0.0 0.0 0.00 0.01 0.00 81 1017.1
20260507234441 62 90 0.0 0.9 0.00 0.01 0.00 81 1017.1
20260507233935 62 90 0.0 0.9 0.00 0.01 0.00 81 1017.1
20260507233435 62 90 0.0 0.9 0.00 0.01 0.00 81 1017.1
20260507233202 63 90 0.0 0.9 0.00 0.01 0.00 81 1017.1
20260507232430 63 90 0.0 0.9 0.00 0.01 0.00 81 1017.2
20260507231929 63 90 0.0 0.9 0.00 0.01 0.00 81 1017.3
20260507231426 63 90 0.0 0.9 0.00 0.01 0.00 81 1017.3
20260507230927 62 90 0.0 0.0 0.00 0.01 0.00 81 1017.3
20260507230427 62 90 0.0 0.0 0.00 0.01 0.00 81 1017.4
20260507230145 63 90 0.0 0.0 0.00 0.01 0.00 81 1017.4
20260507225423 63 90 0.0 0.0 0.00 0.01 0.00 80 1017.5
20260507224922 63 90 0.0 0.0 0.00 0.01 0.00 80 1017.5
20260507224423 63 90 0.0 0.0 0.00 0.01 0.00 80 1017.6
20260507223920 63 90 0.0 0.0 0.00 0.01 0.00 80 1017.7
20260507223419 63 90 0.0 0.0 0.00 0.01 0.00 79 1017.8
20260507222919 63 90 0.0 0.0 0.00 0.01 0.00 79 1017.9
20260507222419 63 90 0.0 0.0 0.00 0.01 0.00 79 1017.9
20260507221917 63 90 0.0 0.0 0.00 0.01 0.00 79 1017.8
20260507221632 64 90 0.0 0.0 0.00 0.01 0.00 79 1017.8
20260507220913 64 90 0.0 0.0 0.00 0.01 0.00 79 1017.8
20260507220413 63 90 0.0 0.0 0.00 0.01 0.00 79 1017.7
20260507215913 63 90 0.0 0.0 0.00 0.01 0.00 78 1017.7
20260507215407 64 90 0.0 0.0 0.00 0.01 0.00 78 1017.7
20260507215121 64 90 0.0 0.0 0.00 0.01 0.00 78 1017.7
20260507214354 64 90 0.0 0.0 0.00 0.01 0.00 78 1017.6
20260507213854 64 90 0.0 0.0 0.00 0.01 0.00 78 1017.7
20260507213353 64 90 0.0 0.0 0.00 0.01 0.00 78 1017.6
20260507213113 64 90 0.0 0.0 0.00 0.01 0.00 78 1017.7
20260507212349 64 90 0.0 0.0 0.00 0.01 0.00 78 1017.7
20260507211849 64 90 0.0 0.0 0.00 0.01 0.00 77 1017.7
20260507211349 64 90 0.0 0.0 0.00 0.01 0.00 77 1017.8
20260507210849 64 90 0.0 0.0 0.00 0.01 0.00 77 1017.8
20260507210836 64 90 0.0 0.0 0.00 0.01 0.00 77 1017.7
20260507205847 64 90 0.0 0.0 0.00 0.01 0.01 76 1017.7
20260507205603 64 90 0.0 0.0 0.00 0.01 0.01 76 1017.6
20260507204845 64 90 0.0 0.0 0.00 0.01 0.01 75 1017.6
20260507204343 64 90 0.0 0.0 0.00 0.01 0.01 75 1017.6
20260507203840 65 90 0.0 0.0 0.00 0.01 0.01 75 1017.6
20260507203339 65 90 0.0 0.0 0.00 0.01 0.01 74 1017.5
20260507202837 65 90 0.0 1.7 0.00 0.01 0.01 74 1017.6
20260507202335 65 90 0.9 1.7 0.00 0.01 0.01 74 1017.5
20260507201833 65 90 0.9 2.6 0.00 0.01 0.01 74 1017.5
20260507201551 65 90 0.9 2.6 0.00 0.01 0.01 74 1017.5
20260507200831 65 90 0.0 1.7 0.00 0.01 0.01 74 1017.5
20260507200331 65 90 0.0 1.7 0.00 0.01 0.01 74 1017.6
20260507195829 65 90 0.0 1.7 0.00 0.01 0.01 74 1017.5
20260507195329 65 89 0.0 0.0 0.00 0.01 0.01 75 1017.5
20260507194829 65 89 0.0 0.0 0.00 0.01 0.01 75 1017.6
20260507194326 65 89 0.0 0.0 0.00 0.01 0.01 74 1017.7
20260507193825 65 89 0.0 0.0 0.00 0.01 0.01 74 1017.7
20260507193325 66 89 0.0 0.0 0.00 0.01 0.01 73 1017.6
20260507192825 66 89 0.0 0.0 0.00 0.01 0.01 73 1017.5
20260507192325 66 89 0.0 0.0 0.00 0.01 0.01 73 1017.5
20260507192039 66 89 0.0 0.0 0.00 0.01 0.01 72 1017.5
20260507191321 66 89 0.0 0.9 0.00 0.01 0.01 71 1017.6
20260507190815 66 89 0.0 1.7 0.00 0.01 0.01 70 1017.5
20260507190309 66 89 0.0 1.7 0.00 0.01 0.01 70 1017.6
20260507185806 66 89 0.0 0.0 0.00 0.01 0.01 70 1017.6
20260507185307 67 89 0.0 1.7 0.00 0.01 0.01 69 1017.6
20260507184805 67 89 0.9 2.6 0.00 0.01 0.01 69 1017.5
20260507184303 67 89 0.9 2.6 0.00 0.01 0.01 69 1017.4
20260507183803 67 71 0.0 1.7 0.00 0.01 0.01 68 1017.4
20260507183303 67 212 0.0 1.7 0.00 0.01 0.01 68 1017.4
20260507182803 67 212 0.0 0.9 0.00 0.01 0.01 68 1017.4
20260507182306 67 212 0.0 0.9 0.00 0.01 0.01 68 1017.3
20260507181803 67 212 0.0 0.9 0.00 0.01 0.01 68 1017.3
20260507181300 67 212 0.0 0.9 0.00 0.01 0.01 68 1017.2
20260507180801 67 212 0.0 0.9 0.00 0.01 0.01 68 1017.2
20260507180301 67 212 0.0 0.9 0.00 0.01 0.01 68 1017.1
20260507180020 67 212 0.0 0.9 0.00 0.01 0.01 68 1017.1
20260507175301 67 212 0.0 1.7 0.00 0.01 0.01 67 1017.1
20260507174757 67 212 0.9 1.7 0.00 0.01 0.01 67 1017.3
20260507174256 67 212 0.9 2.6 0.00 0.01 0.01 67 1017.2
20260507173757 67 212 0.9 2.6 0.00 0.01 0.01 67 1017.0
20260507173257 67 213 0.9 2.6 0.00 0.01 0.01 66 1017.0
20260507172756 67 105 0.9 3.5 0.00 0.01 0.01 66 1016.7
20260507172257 67 98 0.9 3.5 0.00 0.01 0.01 67 1016.4
20260507171756 67 90 0.9 3.5 0.00 0.01 0.01 67 1016.5
20260507171257 67 90 2.6 4.3 0.00 0.01 0.01 67 1016.6
20260507170757 68 103 1.7 4.3 0.00 0.01 0.01 68 1016.6
20260507170257 68 113 1.7 4.3 0.00 0.01 0.01 68 1016.9
20260507165756 68 105 1.7 4.3 0.00 0.01 0.01 68 1017.1
20260507165257 68 105 0.9 2.6 0.00 0.01 0.01 67 1017.2
20260507164756 68 205 0.9 2.6 0.00 0.01 0.01 67 1017.4
20260507164257 68 209 0.0 2.6 0.00 0.01 0.01 66 1017.4
20260507163757 68 167 0.0 1.7 0.00 0.01 0.01 66 1017.4
20260507163256 69 153 0.0 0.9 0.00 0.01 0.01 66 1017.3
20260507162756 69 153 0.0 0.0 0.00 0.01 0.01 66 1017.2
20260507162257 68 153 0.0 0.9 0.00 0.01 0.01 68 1017.3
20260507162235 68 153 0.0 1.7 0.00 0.01 0.01 68 1017.3
20260507161244 68 157 0.9 3.5 0.00 0.01 0.01 67 1017.3
20260507160738 68 151 1.7 4.3 0.00 0.01 0.01 68 1017.4
20260507160232 69 196 1.7 4.3 0.00 0.01 0.01 67 1017.4
20260507155726 69 115 0.9 4.3 0.00 0.01 0.01 67 1017.5
20260507155220 69 138 0.9 2.6 0.00 0.01 0.01 67 1017.3
20260507154714 69 130 0.9 2.6 0.00 0.01 0.01 65 1017.3
20260507154208 69 129 0.0 1.7 0.00 0.01 0.01 65 1017.3
20260507153922 68 130 0.9 1.7 0.00 0.01 0.01 66 1017.5
20260507153156 68 129 1.7 2.6 0.00 0.01 0.01 68 1017.5
20260507152651 68 189 0.9 2.6 0.00 0.01 0.01 67 1017.7
20260507152143 68 217 0.9 3.5 0.00 0.01 0.01 65 1017.6
20260507151638 68 204 0.9 3.5 0.00 0.01 0.01 65 1017.7
20260507151132 68 237 0.9 3.5 0.00 0.01 0.01 65 1017.6
20260507150626 69 244 0.9 3.5 0.00 0.01 0.01 65 1017.7
20260507150119 69 232 0.9 3.5 0.00 0.01 0.01 65 1017.6
20260507145614 68 246 1.7 4.3 0.00 0.01 0.01 65 1017.5
20260507145108 69 254 0.9 4.3 0.00 0.01 0.01 65 1017.5
20260507144601 69 210 0.9 2.6 0.00 0.01 0.01 65 1017.6
20260507144056 69 218 1.7 4.3 0.00 0.01 0.01 65 1017.7
20260507143550 69 264 1.7 5.2 0.00 0.01 0.01 64 1017.7
20260507143043 69 240 1.7 4.3 0.00 0.01 0.01 63 1017.6
20260507142538 69 257 2.6 4.3 0.00 0.01 0.01 64 1017.6
20260507142524 69 252 2.6 4.3 0.00 0.01 0.01 62 1017.6
20260507141525 69 259 3.5 4.3 0.00 0.01 0.01 61 1017.6
20260507141235 69 248 2.6 4.3 0.00 0.01 0.01 61 1017.5
20260507140511 70 266 2.6 4.3 0.00 0.01 0.01 61 1017.5
20260507140006 70 297 2.6 4.3 0.00 0.01 0.01 62 1017.4